Time,TemperatureF,DewpointF,PressureIn,WindDirection,WindDirectionDegrees,WindSpeedMPH,WindSpeedGustMPH,Humidity,HourlyPrecipIn,Conditions,Clouds,dailyrainin,SoftwareType,DateUTC
2013-04-19 00:04:00,49.7,46.8,30.52,SW,225,1.3,3.8,90,0.00,,,0.00,WUHU216HW,2013-04-19 07:04:00,
2013-04-19 00:09:00,49.7,46.8,30.52,SSW,203,0.0,3.6,90,0.00,,,0.00,WUHU216HW,2013-04-19 07:09:00,
2013-04-19 00:14:00,49.9,47.0,30.52,SSW,203,1.1,3.6,90,0.00,,,0.00,WUHU216HW,2013-04-19 07:14:00,
2013-04-19 00:19:00,49.9,47.0,30.52,SSE,158,4.0,4.0,90,0.00,,,0.00,WUHU216HW,2013-04-19 07:19:00,
2013-04-19 00:24:00,49.9,46.7,30.51,South,180,2.0,8.3,89,0.00,,,0.00,WUHU216HW,2013-04-19 07:24:00,
2013-04-19 00:29:00,49.7,46.5,30.51,WSW,248,1.1,8.3,89,0.00,,,0.00,WUHU216HW,2013-04-19 07:29:00,
2013-04-19 00:34:00,49.7,46.8,30.51,SSW,203,2.5,4.7,90,0.00,,,0.00,WUHU216HW,2013-04-19 07:34:00,
2013-04-19 00:39:00,49.7,46.8,30.51,SW,225,3.8,4.7,90,0.00,,,0.00,WUHU216HW,2013-04-19 07:39:00,
2013-04-19 00:44:00,49.7,47.2,30.50,South,180,2.9,3.8,91,0.00,,,0.00,WUHU216HW,2013-04-19 07:44:00,
2013-04-19 00:49:00,49.7,47.2,30.50,SSE,158,1.8,2.9,91,0.00,,,0.00,WUHU216HW,2013-04-19 07:49:00,
2013-04-19 00:54:00,49.7,47.2,30.50,WSW,248,3.1,3.8,91,0.00,,,0.00,WUHU216HW,2013-04-19 07:54:00,
2013-04-19 00:59:00,49.7,47.2,30.50,SSW,203,4.7,4.7,91,0.00,,,0.00,WUHU216HW,2013-04-19 07:59:00,
2013-04-19 01:04:00,49.7,47.2,30.50,SSW,203,1.8,4.7,91,0.00,,,0.00,WUHU216HW,2013-04-19 08:04:00,
2013-04-19 01:09:00,49.7,47.2,30.50,ESE,113,2.9,3.4,91,0.00,,,0.00,WUHU216HW,2013-04-19 08:09:00,
2013-04-19 01:14:00,49.5,47.0,30.50,SSE,158,0.9,4.0,91,0.00,,,0.00,WUHU216HW,2013-04-19 08:14:00,
2013-04-19 01:19:00,49.5,47.0,30.50,SSE,158,0.9,4.0,91,0.00,,,0.00,WUHU216HW,2013-04-19 08:19:00,
2013-04-19 01:43:00,49.7,47.2,30.48,SW,225,2.9,2.9,91,0.00,,,0.00,WUHU216HW,2013-04-19 08:43:00,
2013-04-19 01:48:00,49.7,47.2,30.48,SW,225,3.4,6.7,91,0.00,,,0.00,WUHU216HW,2013-04-19 08:48:00,
2013-04-19 01:53:00,49.7,47.2,30.48,SW,225,1.1,6.7,91,0.00,,,0.00,WUHU216HW,2013-04-19 08:53:00,
2013-04-19 01:58:00,49.5,47.0,30.48,WSW,248,4.9,6.7,91,0.00,,,0.00,WUHU216HW,2013-04-19 08:58:00,
2013-04-19 02:03:00,49.5,47.0,30.48,WSW,248,0.9,7.8,91,0.00,,,0.00,WUHU216HW,2013-04-19 09:03:00,
2013-04-19 02:08:00,49.5,47.0,30.48,SSE,158,4.7,7.8,91,0.00,,,0.00,WUHU216HW,2013-04-19 09:08:00,
2013-04-19 02:13:00,49.5,47.3,30.48,SSW,203,4.7,9.2,92,0.00,,,0.00,WUHU216HW,2013-04-19 09:13:00,
2013-04-19 02:17:00,49.5,47.3,30.48,SW,225,6.7,9.2,92,0.00,,,0.00,WUHU216HW,2013-04-19 09:17:00,
2013-04-19 02:23:00,49.5,47.3,30.47,South,180,3.4,6.7,92,0.00,,,0.00,WUHU216HW,2013-04-19 09:23:00,
2013-04-19 02:27:00,49.5,47.3,30.47,WSW,248,5.6,5.6,92,0.00,,,0.00,WUHU216HW,2013-04-19 09:27:00,
2013-04-19 02:32:00,49.5,47.3,30.47,SSE,158,4.7,6.3,92,0.00,,,0.00,WUHU216HW,2013-04-19 09:32:00,
2013-04-19 02:37:00,49.5,47.3,30.47,SW,225,3.4,6.3,92,0.00,,,0.00,WUHU216HW,2013-04-19 09:37:00,
2013-04-19 02:42:00,49.7,47.4,30.46,ENE,68,3.4,9.2,92,0.00,,,0.00,WUHU216HW,2013-04-19 09:42:00,
2013-04-19 02:47:00,49.7,47.2,30.46,WSW,248,4.0,9.2,91,0.00,,,0.00,WUHU216HW,2013-04-19 09:47:00,
2013-04-19 02:52:00,49.9,47.3,30.46,SW,225,0.4,7.6,91,0.00,,,0.00,WUHU216HW,2013-04-19 09:52:00,
2013-04-19 02:57:00,49.9,47.3,30.45,SSE,158,2.0,4.0,91,0.00,,,0.00,WUHU216HW,2013-04-19 09:57:00,
2013-04-19 03:02:00,49.7,47.2,30.45,South,180,1.6,4.5,91,0.00,,,0.00,WUHU216HW,2013-04-19 10:02:00,
2013-04-19 03:07:00,49.7,47.2,30.45,SSE,158,2.5,4.5,91,0.00,,,0.00,WUHU216HW,2013-04-19 10:07:00,
2013-04-19 03:12:00,49.7,47.2,30.45,South,180,3.1,4.0,91,0.00,,,0.00,WUHU216HW,2013-04-19 10:12:00,
2013-04-19 03:17:00,49.7,47.2,30.45,South,180,3.1,3.4,91,0.00,,,0.00,WUHU216HW,2013-04-19 10:17:00,
2013-04-19 03:40:00,49.7,47.4,30.44,WSW,248,2.9,2.9,92,0.00,,,0.00,WUHU216HW,2013-04-19 10:40:00,
2013-04-19 03:45:00,49.7,47.4,30.43,SW,225,6.0,6.0,92,0.00,,,0.00,WUHU216HW,2013-04-19 10:45:00,
2013-04-19 03:50:00,49.7,47.2,30.43,South,180,5.6,6.0,91,0.00,,,0.00,WUHU216HW,2013-04-19 10:50:00,
2013-04-19 03:55:00,49.7,47.2,30.43,WSW,248,3.8,5.6,91,0.00,,,0.00,WUHU216HW,2013-04-19 10:55:00,
2013-04-19 04:00:00,50.0,47.4,30.43,WSW,248,4.7,5.1,91,0.00,,,0.00,WUHU216HW,2013-04-19 11:00:00,
2013-04-19 04:05:00,50.0,47.4,30.43,SSW,203,5.6,5.6,91,0.00,,,0.00,WUHU216HW,2013-04-19 11:05:00,
2013-04-19 04:10:00,50.0,47.4,30.43,SSW,203,7.6,7.6,91,0.00,,,0.00,WUHU216HW,2013-04-19 11:10:00,
2013-04-19 04:14:00,49.9,47.3,30.43,SW,225,3.1,7.6,91,0.00,,,0.00,WUHU216HW,2013-04-19 11:14:00,
2013-04-19 04:19:00,49.9,47.3,30.42,West,270,4.3,7.6,91,0.00,,,0.00,WUHU216HW,2013-04-19 11:19:00,
2013-04-19 04:24:00,49.9,47.3,30.42,SSW,203,4.5,7.6,91,0.00,,,0.00,WUHU216HW,2013-04-19 11:24:00,
2013-04-19 04:29:00,49.7,47.2,30.42,SSW,203,4.0,6.9,91,0.00,,,0.00,WUHU216HW,2013-04-19 11:29:00,
2013-04-19 04:34:00,49.7,47.2,30.42,SW,225,8.5,9.2,91,0.00,,,0.00,WUHU216HW,2013-04-19 11:34:00,
2013-04-19 04:39:00,49.7,47.4,30.42,South,180,4.0,9.2,92,0.00,,,0.00,WUHU216HW,2013-04-19 11:39:00,
2013-04-19 04:44:00,49.7,47.2,30.42,West,270,5.4,8.1,91,0.00,,,0.00,WUHU216HW,2013-04-19 11:44:00,
2013-04-19 04:49:00,49.7,47.2,30.42,SW,225,2.7,8.1,91,0.00,,,0.00,WUHU216HW,2013-04-19 11:49:00,
2013-04-19 04:54:00,49.7,47.2,30.42,SW,225,4.7,4.7,91,0.00,,,0.00,WUHU216HW,2013-04-19 11:54:00,
2013-04-19 04:59:00,49.7,47.4,30.41,SSW,203,6.7,6.7,92,0.00,,,0.00,WUHU216HW,2013-04-19 11:59:00,
2013-04-19 05:04:00,49.7,47.4,30.41,SW,225,6.3,6.7,92,0.00,,,0.00,WUHU216HW,2013-04-19 12:04:00,
2013-04-19 05:09:00,49.7,47.4,30.41,South,180,2.5,6.3,92,0.00,,,0.00,WUHU216HW,2013-04-19 12:09:00,
2013-04-19 05:14:00,49.7,47.4,30.41,South,180,2.5,5.8,92,0.00,,,0.00,WUHU216HW,2013-04-19 12:14:00,
2013-04-19 05:37:00,49.9,47.3,30.40,WSW,248,2.7,2.7,91,0.00,,,0.00,WUHU216HW,2013-04-19 12:37:00,
2013-04-19 05:42:00,49.9,47.3,30.40,ESE,113,1.1,4.3,91,0.00,,,0.00,WUHU216HW,2013-04-19 12:42:00,
2013-04-19 05:47:00,49.9,47.3,30.40,South,180,6.9,6.9,91,0.00,,,0.00,WUHU216HW,2013-04-19 12:47:00,
2013-04-19 05:52:00,49.9,47.3,30.40,SW,225,3.6,6.9,91,0.00,,,0.00,WUHU216HW,2013-04-19 12:52:00,
2013-04-19 05:57:00,50.0,47.4,30.40,SSW,203,3.8,8.3,91,0.00,,,0.00,WUHU216HW,2013-04-19 12:57:00,
2013-04-19 06:02:00,50.0,47.4,30.40,South,180,0.4,8.3,91,0.00,,,0.00,WUHU216HW,2013-04-19 13:02:00,
2013-04-19 06:07:00,50.0,47.4,30.40,SSE,158,4.5,5.1,91,0.00,,,0.00,WUHU216HW,2013-04-19 13:07:00,
2013-04-19 06:12:00,50.0,47.4,30.40,SSE,158,4.5,4.5,91,0.00,,,0.00,WUHU216HW,2013-04-19 13:12:00,
2013-04-19 06:33:00,50.2,47.3,30.39,SSE,158,1.1,1.1,90,0.00,,,0.00,WUHU216HW,2013-04-19 13:33:00,
2013-04-19 06:38:00,50.4,47.5,30.39,SE,135,2.5,2.5,90,0.00,,,0.00,WUHU216HW,2013-04-19 13:38:00,
2013-04-19 06:43:00,50.4,47.3,30.39,SSW,203,2.5,5.4,89,0.00,,,0.00,WUHU216HW,2013-04-19 13:43:00,
2013-04-19 06:47:00,50.4,47.3,30.39,SSE,158,0.4,5.4,89,0.00,,,0.00,WUHU216HW,2013-04-19 13:47:00,
2013-04-19 06:53:00,50.4,47.3,30.39,South,180,1.6,4.7,89,0.00,,,0.00,WUHU216HW,2013-04-19 13:53:00,
2013-04-19 06:58:00,50.4,47.3,30.39,WSW,248,1.1,4.0,89,0.00,,,0.00,WUHU216HW,2013-04-19 13:58:00,
2013-04-19 07:03:00,50.4,47.3,30.39,SW,225,0.7,2.7,89,0.00,,,0.00,WUHU216HW,2013-04-19 14:03:00,
2013-04-19 07:08:00,50.4,47.3,30.39,WSW,248,4.0,4.0,89,0.00,,,0.00,WUHU216HW,2013-04-19 14:08:00,
2013-04-19 07:13:00,50.4,47.3,30.39,SW,225,1.8,4.0,89,0.00,,,0.00,WUHU216HW,2013-04-19 14:13:00,
2013-04-19 07:18:00,50.4,47.5,30.39,SW,225,1.3,5.4,90,0.00,,,0.00,WUHU216HW,2013-04-19 14:18:00,
2013-04-19 07:22:00,50.2,47.3,30.39,SW,225,4.0,5.4,90,0.00,,,0.00,WUHU216HW,2013-04-19 14:22:00,
2013-04-19 07:27:00,50.4,47.5,30.39,SSE,158,1.8,4.0,90,0.00,,,0.00,WUHU216HW,2013-04-19 14:27:00,
2013-04-19 07:32:00,50.4,47.3,30.39,SSW,203,1.6,2.5,89,0.00,,,0.00,WUHU216HW,2013-04-19 14:32:00,
2013-04-19 07:37:00,50.4,47.5,30.38,SSW,203,1.8,2.0,90,0.00,,,0.00,WUHU216HW,2013-04-19 14:37:00,
2013-04-19 07:42:00,50.4,47.5,30.38,West,270,0.0,1.8,90,0.00,,,0.00,WUHU216HW,2013-04-19 14:42:00,
2013-04-19 07:47:00,50.4,47.5,30.38,WSW,248,0.4,1.1,90,0.00,,,0.00,WUHU216HW,2013-04-19 14:47:00,
2013-04-19 07:52:00,50.6,47.7,30.38,SSW,203,0.9,1.1,90,0.00,,,0.00,WUHU216HW,2013-04-19 14:52:00,
2013-04-19 07:57:00,50.6,47.7,30.38,WSW,248,0.0,0.9,90,0.00,,,0.00,WUHU216HW,2013-04-19 14:57:00,
2013-04-19 08:02:00,50.6,47.4,30.38,SW,225,2.5,2.5,89,0.00,,,0.00,WUHU216HW,2013-04-19 15:02:00,
2013-04-19 08:07:00,50.6,47.4,30.38,SW,225,2.5,2.5,89,0.00,,,0.00,WUHU216HW,2013-04-19 15:07:00,
2013-04-19 08:30:00,50.4,47.5,30.37,WNW,293,0.0,0.0,90,0.00,,,0.00,WUHU216HW,2013-04-19 15:30:00,
2013-04-19 08:35:00,50.2,47.3,30.38,West,270,1.3,1.3,90,0.00,,,0.00,WUHU216HW,2013-04-19 15:35:00,
2013-04-19 08:40:00,50.2,47.6,30.38,SSW,203,0.0,1.3,91,0.00,,,0.00,WUHU216HW,2013-04-19 15:40:00,
2013-04-19 08:45:00,50.4,47.5,30.38,SSW,203,0.4,0.9,90,0.00,,,0.00,WUHU216HW,2013-04-19 15:45:00,
2013-04-19 08:50:00,50.4,47.5,30.38,SSW,203,0.4,0.4,90,0.00,,,0.00,WUHU216HW,2013-04-19 15:50:00,
2013-04-19 08:55:00,50.4,47.8,30.38,SW,225,1.8,2.0,91,0.00,,,0.00,WUHU216HW,2013-04-19 15:55:00,
2013-04-19 09:00:00,50.6,48.0,30.37,SW,225,0.0,2.0,91,0.00,,,0.00,WUHU216HW,2013-04-19 16:00:00,
2013-04-19 09:05:00,50.6,48.0,30.37,NNW,338,0.4,1.8,91,0.00,,,0.00,WUHU216HW,2013-04-19 16:05:00,
2013-04-19 09:10:00,50.6,48.0,30.37,SW,225,2.5,2.5,91,0.00,,,0.00,WUHU216HW,2013-04-19 16:10:00,
2013-04-19 09:15:00,50.8,48.2,30.38,SE,135,2.2,2.5,91,0.00,,,0.00,WUHU216HW,2013-04-19 16:15:00,
2013-04-19 09:20:00,50.6,47.7,30.37,SW,225,0.9,2.5,90,0.00,,,0.00,WUHU216HW,2013-04-19 16:20:00,
2013-04-19 09:25:00,50.6,48.0,30.38,West,270,0.9,2.5,91,0.00,,,0.00,WUHU216HW,2013-04-19 16:25:00,
2013-04-19 09:29:00,50.6,48.0,30.38,SSE,158,1.3,2.5,91,0.00,,,0.00,WUHU216HW,2013-04-19 16:29:00,
2013-04-19 09:34:00,50.6,48.0,30.37,SW,225,0.4,2.5,91,0.00,,,0.00,WUHU216HW,2013-04-19 16:34:00,
2013-04-19 09:39:00,50.6,48.0,30.37,SSW,203,1.8,2.5,91,0.00,,,0.00,WUHU216HW,2013-04-19 16:39:00,
2013-04-19 09:44:00,50.6,48.0,30.38,SSE,158,5.1,5.1,91,0.00,,,0.00,WUHU216HW,2013-04-19 16:44:00,
2013-04-19 09:49:00,50.6,48.0,30.38,South,180,1.6,5.1,91,0.00,,,0.00,WUHU216HW,2013-04-19 16:49:00,
2013-04-19 09:54:00,50.8,48.4,30.38,SW,225,2.9,2.9,92,0.00,,,0.00,WUHU216HW,2013-04-19 16:54:00,
2013-04-19 09:59:00,50.8,48.4,30.38,South,180,1.8,3.6,92,0.00,,,0.00,WUHU216HW,2013-04-19 16:59:00,
2013-04-19 10:04:00,50.8,48.2,30.38,WSW,248,1.1,3.6,91,0.00,,,0.00,WUHU216HW,2013-04-19 17:04:00,
2013-04-19 10:09:00,50.8,48.2,30.38,WSW,248,1.1,1.3,91,0.00,,,0.00,WUHU216HW,2013-04-19 17:09:00,
2013-04-19 10:32:00,51.3,48.7,30.38,South,180,1.1,1.1,91,0.00,,,0.00,WUHU216HW,2013-04-19 17:32:00,
2013-04-19 10:37:00,51.1,48.5,30.38,SSW,203,0.9,2.5,91,0.00,,,0.00,WUHU216HW,2013-04-19 17:37:00,
2013-04-19 10:42:00,51.1,48.5,30.39,SSW,203,1.3,2.5,91,0.00,,,0.00,WUHU216HW,2013-04-19 17:42:00,
2013-04-19 10:47:00,51.3,48.7,30.39,WSW,248,1.8,2.5,91,0.00,,,0.00,WUHU216HW,2013-04-19 17:47:00,
2013-04-19 10:52:00,51.3,48.7,30.39,WSW,248,0.9,2.5,91,0.00,,,0.00,WUHU216HW,2013-04-19 17:52:00,
2013-04-19 10:57:00,51.5,49.1,30.39,West,270,1.1,4.7,92,0.00,,,0.00,WUHU216HW,2013-04-19 17:57:00,
2013-04-19 11:02:00,51.1,48.8,30.39,SSE,158,1.6,4.7,92,0.00,,,0.00,WUHU216HW,2013-04-19 18:02:00,
2013-04-19 11:06:00,51.1,48.8,30.39,SW,225,1.8,4.3,92,0.00,,,0.00,WUHU216HW,2013-04-19 18:06:00,
2013-04-19 11:11:00,51.1,48.8,30.39,South,180,1.6,3.1,92,0.00,,,0.00,WUHU216HW,2013-04-19 18:11:00,
2013-04-19 11:16:00,51.3,49.0,30.39,SSW,203,1.6,2.2,92,0.00,,,0.00,WUHU216HW,2013-04-19 18:16:00,
2013-04-19 11:21:00,51.3,49.0,30.39,SW,225,1.8,4.0,92,0.00,,,0.00,WUHU216HW,2013-04-19 18:21:00,
2013-04-19 11:26:00,51.3,49.0,30.40,WSW,248,3.6,4.0,92,0.00,,,0.00,WUHU216HW,2013-04-19 18:26:00,
2013-04-19 11:31:00,51.5,49.5,30.40,SE,135,1.3,3.6,93,0.00,,,0.00,WUHU216HW,2013-04-19 18:31:00,
2013-04-19 11:36:00,51.7,49.7,30.40,West,270,4.5,4.5,93,0.00,,,0.00,WUHU216HW,2013-04-19 18:36:00,
2013-04-19 11:41:00,51.8,49.5,30.40,SE,135,3.1,4.5,92,0.00,,,0.00,WUHU216HW,2013-04-19 18:41:00,
2013-04-19 11:46:00,51.8,49.5,30.40,South,180,2.0,4.0,92,0.00,,,0.00,WUHU216HW,2013-04-19 18:46:00,
2013-04-19 11:51:00,52.0,49.7,30.40,SW,225,1.8,3.8,92,0.00,,,0.00,WUHU216HW,2013-04-19 18:51:00,
2013-04-19 11:56:00,52.0,49.7,30.40,SW,225,5.6,5.6,92,0.00,,,0.00,WUHU216HW,2013-04-19 18:56:00,
2013-04-19 12:01:00,51.8,49.9,30.40,SSW,203,2.9,5.6,93,0.00,,,0.00,WUHU216HW,2013-04-19 19:01:00,
2013-04-19 12:06:00,51.8,49.5,30.40,SSE,158,2.7,5.4,92,0.00,,,0.00,WUHU216HW,2013-04-19 19:06:00,
2013-04-19 12:11:00,52.0,49.7,30.40,SSW,203,4.0,6.0,92,0.00,,,0.00,WUHU216HW,2013-04-19 19:11:00,
2013-04-19 12:16:00,51.8,49.5,30.40,SW,225,2.0,6.0,92,0.00,,,0.00,WUHU216HW,2013-04-19 19:16:00,
2013-04-19 12:21:00,52.2,49.9,30.40,South,180,2.2,2.5,92,0.00,,,0.00,WUHU216HW,2013-04-19 19:21:00,
2013-04-19 12:26:00,52.2,50.2,30.40,SSW,203,1.1,4.0,93,0.00,,,0.00,WUHU216HW,2013-04-19 19:26:00,
2013-04-19 12:31:00,52.4,50.4,30.40,SW,225,2.0,4.0,93,0.00,,,0.00,WUHU216HW,2013-04-19 19:31:00,
2013-04-19 12:36:00,52.4,50.4,30.40,SSE,158,0.4,2.5,93,0.00,,,0.00,WUHU216HW,2013-04-19 19:36:00,
2013-04-19 12:41:00,52.6,50.6,30.40,SSW,203,1.1,2.2,93,0.00,,,0.00,WUHU216HW,2013-04-19 19:41:00,
2013-04-19 12:46:00,52.7,50.4,30.40,West,270,2.0,2.2,92,0.00,,,0.00,WUHU216HW,2013-04-19 19:46:00,
2013-04-19 12:51:00,52.9,50.6,30.40,SW,225,1.3,4.0,92,0.00,,,0.00,WUHU216HW,2013-04-19 19:51:00,
2013-04-19 12:56:00,53.1,50.8,30.40,SW,225,1.1,4.0,92,0.00,,,0.00,WUHU216HW,2013-04-19 19:56:00,
2013-04-19 13:01:00,53.1,50.8,30.40,WSW,248,3.1,3.1,92,0.00,,,0.00,WUHU216HW,2013-04-19 20:01:00,
2013-04-19 13:06:00,52.9,50.3,30.40,WSW,248,1.8,3.1,91,0.00,,,0.00,WUHU216HW,2013-04-19 20:06:00,
2013-04-19 13:11:00,52.9,50.3,30.40,WSW,248,1.8,2.7,91,0.00,,,0.00,WUHU216HW,2013-04-19 20:11:00,
2013-04-19 13:16:00,52.7,50.1,30.40,SW,225,1.3,2.7,91,0.00,,,0.00,WUHU216HW,2013-04-19 20:16:00,
2013-04-19 13:21:00,52.6,50.0,30.40,SSE,158,0.0,2.2,91,0.00,,,0.00,WUHU216HW,2013-04-19 20:21:00,
2013-04-19 13:26:00,52.6,50.2,30.41,SE,135,0.0,1.8,92,0.00,,,0.00,WUHU216HW,2013-04-19 20:26:00,
2013-04-19 13:31:00,52.7,50.4,30.40,SSW,203,1.3,1.3,92,0.00,,,0.00,WUHU216HW,2013-04-19 20:31:00,
2013-04-19 13:36:00,52.9,50.6,30.40,South,180,0.7,2.2,92,0.00,,,0.00,WUHU216HW,2013-04-19 20:36:00,
2013-04-19 13:41:00,53.1,50.8,30.40,SSW,203,1.1,2.2,92,0.00,,,0.00,WUHU216HW,2013-04-19 20:41:00,
2013-04-19 13:46:00,53.5,51.1,30.41,SE,135,2.5,2.5,92,0.00,,,0.00,WUHU216HW,2013-04-19 20:46:00,
2013-04-19 13:51:00,53.6,51.3,30.41,West,270,0.0,2.5,92,0.00,,,0.00,WUHU216HW,2013-04-19 20:51:00,
2013-04-19 13:56:00,53.5,51.1,30.41,South,180,0.4,0.7,92,0.00,,,0.00,WUHU216HW,2013-04-19 20:56:00,
2013-04-19 14:01:00,53.5,51.1,30.41,SW,225,2.9,2.9,92,0.00,,,0.00,WUHU216HW,2013-04-19 21:01:00,
2013-04-19 14:06:00,53.6,51.3,30.41,South,180,0.9,2.9,92,0.00,,,0.00,WUHU216HW,2013-04-19 21:06:00,
2013-04-19 14:11:00,53.5,50.9,30.41,South,180,1.3,2.9,91,0.00,,,0.00,WUHU216HW,2013-04-19 21:11:00,
2013-04-19 14:16:00,53.6,51.0,30.41,SSW,203,0.0,1.3,91,0.00,,,0.00,WUHU216HW,2013-04-19 21:16:00,
2013-04-19 14:21:00,53.6,51.3,30.41,SSE,158,0.0,1.3,92,0.00,,,0.00,WUHU216HW,2013-04-19 21:21:00,
2013-04-19 14:26:00,53.8,51.5,30.41,SW,225,0.2,1.1,92,0.00,,,0.00,WUHU216HW,2013-04-19 21:26:00,
2013-04-19 14:31:00,53.8,51.5,30.41,SSE,158,1.1,1.1,92,0.00,,,0.00,WUHU216HW,2013-04-19 21:31:00,
2013-04-19 14:36:00,53.8,51.5,30.41,SSW,203,0.0,1.1,92,0.00,,,0.00,WUHU216HW,2013-04-19 21:36:00,
2013-04-19 14:41:00,53.8,51.5,30.41,SSW,203,0.0,0.4,92,0.00,,,0.00,WUHU216HW,2013-04-19 21:41:00,
2013-04-19 14:46:00,53.6,51.3,30.42,WSW,248,0.4,0.4,92,0.00,,,0.00,WUHU216HW,2013-04-19 21:46:00,
2013-04-19 14:51:00,53.6,51.3,30.41,SSW,203,0.0,0.4,92,0.00,,,0.00,WUHU216HW,2013-04-19 21:51:00,
2013-04-19 14:56:00,53.6,51.3,30.42,SSE,158,0.0,1.6,92,0.00,,,0.00,WUHU216HW,2013-04-19 21:56:00,
2013-04-19 15:01:00,54.0,51.7,30.42,WSW,248,0.2,1.6,92,0.00,,,0.00,WUHU216HW,2013-04-19 22:01:00,
2013-04-19 15:06:00,53.8,51.5,30.42,WNW,293,0.0,0.2,92,0.00,,,0.00,WUHU216HW,2013-04-19 22:06:00,
2013-04-19 15:11:00,53.8,51.5,30.42,West,270,0.9,1.1,92,0.00,,,0.00,WUHU216HW,2013-04-19 22:11:00,
2013-04-19 15:16:00,54.0,51.7,30.42,West,270,0.0,1.1,92,0.00,,,0.00,WUHU216HW,2013-04-19 22:16:00,
2013-04-19 15:21:00,54.0,51.7,30.42,NW,315,1.1,1.1,92,0.00,,,0.00,WUHU216HW,2013-04-19 22:21:00,
2013-04-19 15:26:00,54.2,51.8,30.42,NW,315,0.0,1.1,92,0.00,,,0.00,WUHU216HW,2013-04-19 22:26:00,
2013-04-19 15:31:00,54.2,51.6,30.42,NW,315,0.0,0.7,91,0.00,,,0.00,WUHU216HW,2013-04-19 22:31:00,
2013-04-19 15:36:00,53.8,51.2,30.42,North,0,0.2,0.9,91,0.00,,,0.00,WUHU216HW,2013-04-19 22:36:00,
2013-04-19 15:41:00,53.6,51.0,30.42,SSE,158,0.0,1.1,91,0.00,,,0.00,WUHU216HW,2013-04-19 22:41:00,
2013-04-19 15:46:00,53.6,51.0,30.42,SSE,158,0.0,1.1,91,0.00,,,0.00,WUHU216HW,2013-04-19 22:46:00,
2013-04-19 15:51:00,53.5,50.9,30.42,North,0,0.0,0.2,91,0.00,,,0.00,WUHU216HW,2013-04-19 22:51:00,
2013-04-19 15:56:00,53.5,50.9,30.42,NW,315,0.2,0.2,91,0.00,,,0.00,WUHU216HW,2013-04-19 22:56:00,
2013-04-19 16:01:00,53.5,50.9,30.42,North,0,0.0,0.2,91,0.00,,,0.00,WUHU216HW,2013-04-19 23:01:00,
2013-04-19 16:06:00,53.5,50.9,30.42,South,180,0.0,0.7,91,0.00,,,0.00,WUHU216HW,2013-04-19 23:06:00,
2013-04-19 16:11:00,53.5,51.1,30.42,South,180,0.0,0.7,92,0.00,,,0.00,WUHU216HW,2013-04-19 23:11:00,
2013-04-19 16:16:00,53.5,51.1,30.43,South,180,0.0,0.0,92,0.00,,,0.00,WUHU216HW,2013-04-19 23:16:00,
2013-04-19 16:21:00,53.6,51.3,30.42,South,180,0.0,0.0,92,0.00,,,0.00,WUHU216HW,2013-04-19 23:21:00,
2013-04-19 16:26:00,53.6,51.3,30.42,South,180,0.0,0.0,92,0.00,,,0.00,WUHU216HW,2013-04-19 23:26:00,
2013-04-19 16:31:00,53.6,51.3,30.42,South,180,0.0,0.0,92,0.00,,,0.00,WUHU216HW,2013-04-19 23:31:00,
2013-04-19 16:36:00,53.8,51.5,30.43,SSW,203,0.0,0.0,92,0.00,,,0.00,WUHU216HW,2013-04-19 23:36:00,
2013-04-19 16:41:00,53.8,51.5,30.43,NNW,338,0.2,0.4,92,0.00,,,0.00,WUHU216HW,2013-04-19 23:41:00,
2013-04-19 16:46:00,54.0,51.7,30.43,North,0,0.0,0.9,92,0.00,,,0.00,WUHU216HW,2013-04-19 23:46:00,
2013-04-19 16:51:00,53.8,51.2,30.43,North,0,0.0,0.9,91,0.00,,,0.00,WUHU216HW,2013-04-19 23:51:00,
2013-04-19 16:56:00,53.8,51.2,30.43,North,0,0.0,0.0,91,0.00,,,0.00,WUHU216HW,2013-04-19 23:56:00,
2013-04-19 17:01:00,53.8,51.5,30.43,SW,225,0.0,0.0,92,0.00,,,0.00,WUHU216HW,2013-04-20 00:01:00,
2013-04-19 17:06:00,53.6,51.3,30.43,SW,225,0.0,0.0,92,0.00,,,0.00,WUHU216HW,2013-04-20 00:06:00,
2013-04-19 17:11:00,53.6,51.3,30.43,SW,225,0.0,0.0,92,0.00,,,0.00,WUHU216HW,2013-04-20 00:11:00,
2013-04-19 17:16:00,53.6,51.3,30.43,SW,225,0.0,0.0,92,0.00,,,0.00,WUHU216HW,2013-04-20 00:16:00,
2013-04-19 17:21:00,53.6,51.3,30.43,NW,315,0.0,0.0,92,0.00,,,0.00,WUHU216HW,2013-04-20 00:21:00,
2013-04-19 17:26:00,53.6,51.3,30.43,North,0,0.2,1.8,92,0.00,,,0.00,WUHU216HW,2013-04-20 00:26:00,
2013-04-19 17:31:00,53.6,51.0,30.43,East,90,0.7,1.8,91,0.00,,,0.00,WUHU216HW,2013-04-20 00:31:00,
2013-04-19 17:36:00,53.6,51.0,30.43,North,0,0.2,0.7,91,0.00,,,0.00,WUHU216HW,2013-04-20 00:36:00,
2013-04-19 17:41:00,53.6,51.0,30.43,North,0,0.0,0.2,91,0.00,,,0.00,WUHU216HW,2013-04-20 00:41:00,
2013-04-19 17:46:00,53.5,50.9,30.43,North,0,0.0,0.2,91,0.00,,,0.00,WUHU216HW,2013-04-20 00:46:00,
2013-04-19 17:51:00,53.6,51.0,30.43,North,0,0.0,0.0,91,0.00,,,0.00,WUHU216HW,2013-04-20 00:51:00,
2013-04-19 17:56:00,53.6,51.0,30.43,North,0,0.0,0.0,91,0.00,,,0.00,WUHU216HW,2013-04-20 00:56:00,
2013-04-19 18:01:00,53.6,51.0,30.43,North,0,0.0,0.0,91,0.00,,,0.00,WUHU216HW,2013-04-20 01:01:00,
2013-04-19 18:06:00,53.5,50.9,30.43,North,0,0.0,0.0,91,0.00,,,0.00,WUHU216HW,2013-04-20 01:06:00,
2013-04-19 18:11:00,53.5,50.9,30.43,North,0,0.0,0.0,91,0.00,,,0.00,WUHU216HW,2013-04-20 01:11:00,
2013-04-19 18:16:00,53.3,50.7,30.43,North,0,0.0,0.0,91,0.00,,,0.00,WUHU216HW,2013-04-20 01:16:00,
2013-04-19 18:21:00,53.3,50.7,30.43,North,0,0.4,0.4,91,0.00,,,0.00,WUHU216HW,2013-04-20 01:21:00,
2013-04-19 18:26:00,53.1,50.5,30.44,North,0,0.0,0.4,91,0.00,,,0.00,WUHU216HW,2013-04-20 01:26:00,
2013-04-19 18:31:00,53.1,50.5,30.44,North,0,0.0,0.0,91,0.00,,,0.00,WUHU216HW,2013-04-20 01:31:00,
2013-04-19 18:36:00,53.1,50.5,30.44,NNW,338,0.0,0.2,91,0.00,,,0.00,WUHU216HW,2013-04-20 01:36:00,
2013-04-19 18:41:00,52.9,50.3,30.44,NNW,338,0.0,0.2,91,0.00,,,0.00,WUHU216HW,2013-04-20 01:41:00,
2013-04-19 18:46:00,52.9,50.3,30.44,NW,315,0.4,0.7,91,0.00,,,0.00,WUHU216HW,2013-04-20 01:46:00,
2013-04-19 18:50:00,52.7,50.1,30.44,WSW,248,0.0,0.9,91,0.00,,,0.00,WUHU216HW,2013-04-20 01:50:00,
2013-04-19 18:55:00,52.6,50.0,30.45,NW,315,0.0,0.9,91,0.00,,,0.00,WUHU216HW,2013-04-20 01:55:00,
2013-04-19 19:00:00,52.6,50.2,30.44,NNW,338,0.2,0.4,92,0.00,,,0.00,WUHU216HW,2013-04-20 02:00:00,
2013-04-19 19:05:00,52.6,50.2,30.44,North,0,0.0,0.4,92,0.00,,,0.00,WUHU216HW,2013-04-20 02:05:00,
2013-04-19 19:10:00,52.6,50.2,30.44,NW,315,0.4,1.3,92,0.00,,,0.00,WUHU216HW,2013-04-20 02:10:00,
2013-04-19 19:15:00,52.2,49.6,30.44,North,0,0.9,1.3,91,0.00,,,0.00,WUHU216HW,2013-04-20 02:15:00,
2013-04-19 19:20:00,52.2,49.6,30.45,SSE,158,1.1,1.1,91,0.00,,,0.00,WUHU216HW,2013-04-20 02:20:00,
2013-04-19 19:25:00,52.0,49.4,30.45,SW,225,0.0,1.6,91,0.00,,,0.00,WUHU216HW,2013-04-20 02:25:00,
2013-04-19 19:30:00,51.8,49.2,30.45,SSW,203,0.0,1.6,91,0.00,,,0.00,WUHU216HW,2013-04-20 02:30:00,
2013-04-19 19:35:00,51.7,49.1,30.45,SSW,203,0.2,1.6,91,0.00,,,0.00,WUHU216HW,2013-04-20 02:35:00,
2013-04-19 19:40:00,51.7,49.1,30.45,WNW,293,0.9,1.6,91,0.00,,,0.00,WUHU216HW,2013-04-20 02:40:00,
2013-04-19 19:45:00,51.3,48.7,30.45,WNW,293,0.0,1.6,91,0.00,,,0.00,WUHU216HW,2013-04-20 02:45:00,
2013-04-19 19:50:00,51.3,48.7,30.45,WNW,293,0.0,0.2,91,0.00,,,0.00,WUHU216HW,2013-04-20 02:50:00,
2013-04-19 19:55:00,51.1,48.5,30.46,NW,315,0.0,0.0,91,0.00,,,0.00,WUHU216HW,2013-04-20 02:55:00,
2013-04-19 20:00:00,51.1,48.5,30.45,NNW,338,0.0,0.0,91,0.00,,,0.00,WUHU216HW,2013-04-20 03:00:00,
2013-04-19 20:05:00,51.1,48.5,30.46,SSW,203,0.0,0.2,91,0.00,,,0.00,WUHU216HW,2013-04-20 03:05:00,
2013-04-19 20:10:00,51.1,48.5,30.46,WNW,293,0.0,0.9,91,0.00,,,0.00,WUHU216HW,2013-04-20 03:10:00,
2013-04-19 20:15:00,51.1,48.5,30.46,WNW,293,0.0,0.9,91,0.00,,,0.00,WUHU216HW,2013-04-20 03:15:00,
2013-04-19 20:20:00,51.3,48.7,30.46,WNW,293,0.0,0.0,91,0.00,,,0.00,WUHU216HW,2013-04-20 03:20:00,
2013-04-19 20:25:00,51.3,48.7,30.46,NNW,338,0.0,0.0,91,0.00,,,0.00,WUHU216HW,2013-04-20 03:25:00,
2013-04-19 20:30:00,51.1,48.5,30.47,NNW,338,0.2,0.2,91,0.00,,,0.00,WUHU216HW,2013-04-20 03:30:00,
2013-04-19 20:35:00,51.1,48.5,30.47,NNW,338,0.0,1.3,91,0.00,,,0.00,WUHU216HW,2013-04-20 03:35:00,
2013-04-19 20:40:00,50.9,48.3,30.47,North,0,0.0,1.3,91,0.00,,,0.00,WUHU216HW,2013-04-20 03:40:00,
2013-04-19 20:45:00,50.9,48.3,30.47,North,0,0.0,0.4,91,0.00,,,0.00,WUHU216HW,2013-04-20 03:45:00,
2013-04-19 20:50:00,50.8,48.2,30.47,NNW,338,1.8,1.8,91,0.00,,,0.00,WUHU216HW,2013-04-20 03:50:00,
2013-04-19 20:55:00,50.8,48.2,30.47,NNW,338,1.8,1.8,91,0.00,,,0.00,WUHU216HW,2013-04-20 03:55:00,
2013-04-19 21:00:00,50.8,48.2,30.48,WNW,293,0.0,0.0,91,0.00,,,0.00,WUHU216HW,2013-04-20 04:00:00,
2013-04-19 21:01:00,50.8,48.2,30.48,WNW,293,0.0,0.0,91,0.00,,,0.00,WUHU216HW,2013-04-20 04:01:00,
2013-04-19 21:06:00,50.8,48.2,30.48,NW,315,0.0,1.1,91,0.00,,,0.00,WUHU216HW,2013-04-20 04:06:00,
2013-04-19 21:11:00,50.8,48.2,30.48,South,180,0.9,1.1,91,0.00,,,0.00,WUHU216HW,2013-04-20 04:11:00,
2013-04-19 21:16:00,50.8,48.2,30.48,SSW,203,1.3,1.3,91,0.00,,,0.00,WUHU216HW,2013-04-20 04:16:00,
2013-04-19 21:21:00,50.6,48.2,30.48,WSW,248,2.5,2.5,92,0.00,,,0.00,WUHU216HW,2013-04-20 04:21:00,
2013-04-19 21:26:00,50.4,47.8,30.48,SSE,158,0.0,2.5,91,0.00,,,0.00,WUHU216HW,2013-04-20 04:26:00,
2013-04-19 21:31:00,50.4,48.1,30.48,WSW,248,1.1,2.5,92,0.00,,,0.00,WUHU216HW,2013-04-20 04:31:00,
2013-04-19 21:36:00,50.6,48.2,30.48,West,270,0.9,1.1,92,0.00,,,0.00,WUHU216HW,2013-04-20 04:36:00,
2013-04-19 21:41:00,50.6,48.2,30.49,SW,225,0.4,1.1,92,0.00,,,0.00,WUHU216HW,2013-04-20 04:41:00,
2013-04-19 21:46:00,50.6,48.2,30.49,SSW,203,1.8,1.8,92,0.00,,,0.00,WUHU216HW,2013-04-20 04:46:00,
2013-04-19 21:51:00,50.6,48.0,30.49,SW,225,0.0,1.8,91,0.00,,,0.00,WUHU216HW,2013-04-20 04:51:00,
2013-04-19 21:56:00,50.6,48.0,30.49,SW,225,0.0,0.0,91,0.00,,,0.00,WUHU216HW,2013-04-20 04:56:00,
2013-04-19 22:01:00,50.2,47.6,30.49,South,180,1.1,1.6,91,0.00,,,0.00,WUHU216HW,2013-04-20 05:01:00,
2013-04-19 22:06:00,50.2,47.6,30.49,South,180,0.4,1.6,91,0.00,,,0.00,WUHU216HW,2013-04-20 05:06:00,
2013-04-19 22:11:00,50.2,47.6,30.49,South,180,1.1,1.3,91,0.00,,,0.00,WUHU216HW,2013-04-20 05:11:00,
2013-04-19 22:16:00,50.0,47.4,30.49,North,0,0.0,1.3,91,0.00,,,0.00,WUHU216HW,2013-04-20 05:16:00,
2013-04-19 22:21:00,50.0,47.4,30.49,SW,225,0.4,1.8,91,0.00,,,0.00,WUHU216HW,2013-04-20 05:21:00,
2013-04-19 22:26:00,50.0,47.4,30.49,NNW,338,0.0,1.8,91,0.00,,,0.00,WUHU216HW,2013-04-20 05:26:00,
2013-04-19 22:31:00,49.9,47.3,30.49,WSW,248,0.4,1.8,91,0.00,,,0.00,WUHU216HW,2013-04-20 05:31:00,
2013-04-19 22:36:00,49.7,47.2,30.50,South,180,0.4,2.0,91,0.00,,,0.00,WUHU216HW,2013-04-20 05:36:00,
2013-04-19 22:41:00,49.7,47.2,30.50,NW,315,0.4,2.5,91,0.00,,,0.00,WUHU216HW,2013-04-20 05:41:00,
2013-04-19 22:46:00,49.7,47.2,30.50,SSE,158,1.1,2.5,91,0.00,,,0.00,WUHU216HW,2013-04-20 05:46:00,
2013-04-19 22:51:00,49.5,47.0,30.50,SW,225,1.1,3.1,91,0.00,,,0.00,WUHU216HW,2013-04-20 05:51:00,
2013-04-19 22:56:00,49.5,47.0,30.50,SE,135,0.9,3.4,91,0.00,,,0.00,WUHU216HW,2013-04-20 05:56:00,
2013-04-19 23:01:00,49.5,47.0,30.50,SSE,158,1.8,3.4,91,0.00,,,0.00,WUHU216HW,2013-04-20 06:01:00,
2013-04-19 23:06:00,49.5,47.0,30.50,SSW,203,3.1,4.0,91,0.00,,,0.00,WUHU216HW,2013-04-20 06:06:00,
2013-04-19 23:11:00,49.3,46.8,30.50,SSW,203,0.2,4.0,91,0.00,,,0.00,WUHU216HW,2013-04-20 06:11:00,
2013-04-19 23:16:00,49.1,46.6,30.50,SW,225,0.0,3.4,91,0.00,,,0.00,WUHU216HW,2013-04-20 06:16:00,
2013-04-19 23:21:00,49.1,46.6,30.50,WSW,248,1.3,1.3,91,0.00,,,0.00,WUHU216HW,2013-04-20 06:21:00,
2013-04-19 23:26:00,49.1,46.6,30.50,SSE,158,0.0,1.3,91,0.00,,,0.00,WUHU216HW,2013-04-20 06:26:00,
2013-04-19 23:30:00,49.1,46.6,30.50,NE,45,0.2,0.9,91,0.00,,,0.00,WUHU216HW,2013-04-20 06:30:00,
2013-04-19 23:35:00,49.0,46.4,30.50,WSW,248,0.4,1.1,91,0.00,,,0.00,WUHU216HW,2013-04-20 06:35:00,
2013-04-19 23:40:00,49.0,46.4,30.50,SW,225,0.7,3.4,91,0.00,,,0.00,WUHU216HW,2013-04-20 06:40:00,
2013-04-19 23:45:00,49.0,46.4,30.50,SSW,203,2.0,3.4,91,0.00,,,0.00,WUHU216HW,2013-04-20 06:45:00,
2013-04-19 23:50:00,48.8,46.3,30.50,South,180,4.0,4.0,91,0.00,,,0.00,WUHU216HW,2013-04-20 06:50:00,
2013-04-19 23:55:00,48.8,46.3,30.50,SSW,203,0.7,4.0,91,0.00,,,0.00,WUHU216HW,2013-04-20 06:55:00,